Regional Weather Roundup
Issued by NWS

Home | Current Version | Previous Version | Graphics & Text | Print | Product List | Glossary On
Versions: 1 2 3 4 5 6 7 8 9 10 11 12 13 14 15 16 17 18 19 20 21 22 23 24 25 26 27 28 29 30 31 32 33 34 35 36 37 38 39 40 41 42 43 44 45 46 47 48 49 50
000
ASUS43 KLSX 190407
RWRMO

WEATHER SUMMARY FOR MISSOURI
NATIONAL WEATHER SERVICE SPRINGFIELD MO
1100 PM CDT WED OCT 18 2017

NOTE: "FAIR" INDICATES FEW OR NO CLOUDS BELOW 12,000 FEET WITH NO
       SIGNIFICANT WEATHER AND/OR OBSTRUCTIONS TO VISIBILITY.
       CURRENT SKY AND/OR WEATHER CONDITIONS ARE NOT AVAILABLE FOR
       CHILLICOTHE AND FARMINGTON.

MOZ001>031-035>038-043-044-053-054-190500-
...NORTHERN AND WESTERN MISSOURI...

CITY           SKY/WX    TMP DP  RH WIND       PRES   REMARKS
KANSAS CTY INT CLEAR     55  50  83 S9        30.04S
KANSAS C DTWN  CLEAR     61  51  70 SW7       30.04S
LEE`S SUMMIT   CLEAR     62  51  67 S13       30.07R
ST JOSEPH      CLEAR     48  47  96 CALM      30.04R
CHILLICOTHE      N/A     55  52  89 CALM      30.06S
KIRKSVILLE     CLEAR     53  50  89 S3        30.07R

$$
MOZ066>068-077>081-088>096-101>105-190500-
...SOUTHWEST MISSOURI...

CITY           SKY/WX    TMP DP  RH WIND       PRES   REMARKS
SPRINGFIELD    PTCLDY    60  43  53 S12       30.10F
JOPLIN         CLEAR     56  48  74 MISG      30.09S
BRANSON        CLEAR     59  46  63 CALM      30.14R

$$
MOZ032>034-039>042-045>050-055>058-069>072-190500-
...CENTRAL MISSOURI...

CITY           SKY/WX    TMP DP  RH WIND       PRES   REMARKS
COLUMBIA       CLEAR     58  45  62 S6        30.09R
JEFFERSON CITY CLEAR     55  46  71 CALM      30.09R
ROLLA          CLOUDY    61  48  62 S15       30.11S
SEDALIA        CLEAR     60  51  72 S7        30.08S
WHITEMAN AFB   CLEAR     56  50  80 S6        30.03S
WARRENSBURG    CLEAR     55  50  82 S6        30.07R
OSAGE BEACH    CLEAR     60  47  61 S3        30.11R

$$
MOZ051-052-059>065-190500-
...EAST CENTRAL MISSOURI...

CITY           SKY/WX    TMP DP  RH WIND       PRES   REMARKS
ST LOUIS INTL  CLEAR     62  48  60 VRB6      30.11R
SPIRIT OF STL  CLEAR     63  47  55 CALM      30.09R
ST CHARLES     CLEAR     55  46  71 E3        30.10R

$$
MOZ072>076-082>087-097>100-106>115-190500-
...SOUTH CENTRAL AND SOUTHEAST MISSOURI...

CITY           SKY/WX    TMP DP  RH WIND       PRES   REMARKS
CAPE GIRARDEAU PTCLDY    57  47  69 S9        30.17S
FARMINGTON     CLEAR     59  48  67 S8        30.15S
POPLAR BLUFF   PTCLDY    59  49  69 S3        30.17R
WEST PLAINS    CLEAR     58  48  69 S6        30.16S

$$


USA.gov is the U.S. government's official web portal to all federal, state and local government web resources and services.